Flag for Paraguay Weather past 2 weeks in Ciudad del Este, Paraguay

Now
70 °F

Sunny.


Feels Like: 70 °F
Forecast: 63 / 80 °F
Wind: 5 mph from East

Location: Foz Do Iguacu Aeroporto

Current Time: Sep 3, 2015 at 6:01:37 AM

Latest Report: Sep 3, 2015 at 5:00 AM


Visibility: 10 mi

Pressure: 29.89 "Hg

Humidity: 83%

Dew point: 64 °F

Location of Ciudad del EsteLocation

Historic Weather in Ciudad del Este — Graph

°F

Ciudad del Este temperature yesterday

Maximum temperature yesterday: 82 °F (at 12:00 PM)
Minimum temperature yesterday: 64 °F (at 4:00 AM)
Average temperature yesterday: 73 °F

Past Weeks' High & Low Weather Summary

 TemperatureHumidityPressure
High93 °F (Aug 31, 3:00 PM)100% (Aug 20, 2:00 AM)30.18 "Hg (Aug 20, 2:00 AM)
Low46 °F (Aug 20, 5:00 AM)24% (Aug 30, 1:00 PM)29.77 "Hg (Aug 23, 3:00 AM)
Average68 °F74%30.00 "Hg
* Reported Aug 19 5:00 AM — Sep 3 5:00 AM, Ciudad del Este, Weather by CustomWeather, © 2015

Note: Actual official high and low records may vary slightly from our data, if they occured in-between our weather recording intervals... More about our weather records

Advertising

Ciudad del Este weather history for previous 24 hours

 ConditionsComfort  
Time TempWeatherWind HumidityBarometerVisibility
5:00 AM
Thu, Sep 3
70 °FSunny.5 mph83%29.89 "Hg10 mi
4:00 AM70 °FClear.7 mph83%29.89 "Hg10 mi
3:00 AM68 °FClear.5 mph88%29.92 "Hg10 mi
2:00 AM68 °FClear.3 mph94%29.92 "Hg10 mi
1:00 AM68 °FClear.2 mph94%29.95 "Hg10 mi
12:00 AM70 °FClear.5 mph88%29.95 "Hg10 mi
11:00 PM
Wed, Sep 2
70 °FClear.5 mph88%29.95 "Hg10 mi
10:00 PM72 °FClear.6 mph83%29.95 "Hg10 mi
9:00 PM72 °FClear.5 mph83%29.95 "Hg10 mi
8:00 PM72 °FClear.7 mph88%29.95 "Hg10 mi
7:00 PM73 °FClear.7 mph78%29.92 "Hg10 mi
6:00 PM73 °FClear.9 mph83%29.92 "Hg10 mi
5:00 PM77 °FClear.3 mph69%29.92 "Hg10 mi
4:00 PM79 °FSunny.8 mph65%29.92 "Hg10 mi
3:00 PM79 °FSunny.5 mph65%29.95 "Hg10 mi
2:00 PM77 °FLight rain. Clear.8 mph69%29.98 "Hg5 mi
1:00 PM82 °FSunny.8 mph55%29.98 "Hg10 mi
12:00 PM82 °FPassing clouds.10 mph51%29.98 "HgN/A
11:00 AM79 °FScattered clouds.15 mph58%30.04 "HgN/A
10:00 AM81 °FPassing clouds.13 mph54%30.04 "HgN/A
9:00 AM75 °FPassing clouds.5 mph69%30.04 "HgN/A
8:00 AM72 °FScattered clouds.8 mph83%30.04 "HgN/A
7:00 AM66 °FScattered clouds.5 mph94%30.01 "HgN/A
6:00 AM64 °FSunny.2 mph94%29.98 "Hg10 mi
Weather by CustomWeather, © 2015

See weather overviewHow to use our weather pages